Regional Weather Roundup
Issued by NWS

Home | Current Version | Previous Version | Graphics & Text | Print | Product List | Glossary Off
Versions: 1 2 3 4 5 6 7 8 9 10 11 12 13 14 15 16 17 18 19 20 21 22 23 24 25 26 27 28 29 30 31 32 33 34 35 36 37 38 39 40 41 42 43 44 45 46 47 48 49 50

000
ASUS43 KLMK 200710
RWRKY
KENTUCKY REGIONAL WEATHER ROUNDUP
NATIONAL WEATHER SERVICE LOUISVILLE KY
300 AM EDT WED AUG 20 2014

NOTE "FAIR" INDICATES FEW OR NO CLOUDS BELOW 12,000 FEET
WITH NO SIGNIFICANT WEATHER AND/OR OBSTRUCTIONS TO VISIBILITY.

KYZ001>023-026-027-061>063-070>075-200800-
WESTERN AND SOUTH CENTRAL KENTUCKY

CITY           SKY/WX    TMP DP  RH WIND       PRES   REMARKS
PADUCAH        CLEAR     78  74  87 SW7       29.84S
HENDERSON      PTCLDY    72  66  83 CALM      29.85F
OWENSBORO      PTCLDY    73  72  97 CALM      29.87S
HOPKINSVILLE   CLEAR     75  75 100 SW3       29.88S
BOWLING GREEN  CLEAR     78  72  81 S3        29.88F
GLASGOW        CLEAR     73  73 100 CALM      29.89F FOG
$$

KYZ024-025-028>034-038-045-046-053-200800-
NORTH CENTRAL KENTUCKY

CITY           SKY/WX    TMP DP  RH WIND       PRES   REMARKS
LOUISVILLE/SDF MOCLDY    77  69  76 SW7       29.86R
LOUISVILLE/LOU PTCLDY    77  69  76 W9        29.86R
FORT KNOX      PTCLDY    69  63  82 S3        29.87S
$$

KYZ035>037-039>044-047>052-055>060-089>105-200800-
NORTHEAST KENTUCKY

CITY           SKY/WX    TMP DP  RH WIND       PRES   REMARKS
LEXINGTON      MOCLDY    74  64  71 SW8       29.88R
COVINGTON      CLOUDY    67  65  93 SW3       29.89F THUNDER
FRANKFORT      PTCLDY    72  67  84 CALM      29.87R
$$

KYZ054-064>069-076>088-106>120-200800-
SOUTHEAST KENTUCKY

CITY           SKY/WX    TMP DP  RH WIND       PRES   REMARKS
JACKSON        MOCLDY    71  68  90 CALM      29.91F
LONDON         CLOUDY    73  69  87 CALM      29.93F
SOMERSET       MOCLDY    72  70  94 CALM      29.91F
MIDDLESBORO    MOCLDY    67  66  99 CALM      29.96F FOG
MONTICELLO     MOSUNNY   73  71  93 CALM      29.93F
$$



USA.gov is the U.S. government's official web portal to all federal, state and local government web resources and services.